| time (UTC) | temp C | wind direction | speed KPH | gust KPH | rain 1hr cm | rain 24hr cm | rain mn cm | humidity % | barometer mb |
| 20260508010006 | 6 | 261 | 0.0 | 0.0 | 0.00 | 0.00 | 0.00 | 64 | 1011.1 |
| 20260508004503 | 7 | 261 | 0.0 | 1.6 | 0.00 | 0.00 | 0.00 | 53 | 1010.9 |
| 20260508003006 | 7 | 246 | 0.0 | 3.2 | 0.00 | 0.00 | 0.00 | 51 | 1010.9 |
| 20260508001525 | 7 | 276 | 1.6 | 6.4 | 0.00 | 0.00 | 0.00 | 49 | 1010.9 |
| 20260508000025 | 8 | 267 | 0.0 | 4.8 | 0.00 | 0.00 | 0.00 | 46 | 1010.9 |
| 20260507234504 | 8 | 294 | 3.2 | 6.4 | 0.00 | 0.00 | 0.00 | 47 | 1010.8 |
| 20260507233004 | 8 | 264 | 1.6 | 9.7 | 0.00 | 0.00 | 0.00 | 44 | 1010.8 |
| 20260507231510 | 8 | 287 | 6.4 | 11.3 | 0.00 | 0.00 | 0.00 | 44 | 1010.8 |
| 20260507230036 | 8 | 290 | 6.4 | 14.5 | 0.00 | 0.00 | 0.00 | 43 | 1011.0 |
| 20260507224531 | 8 | 274 | 4.8 | 11.3 | 0.00 | 0.00 | 0.00 | 44 | 1011.0 |
| 20260507223006 | 8 | 276 | 6.4 | 12.9 | 0.00 | 0.00 | 0.00 | 42 | 1011.1 |
| 20260507221507 | 8 | 287 | 9.7 | 14.5 | 0.00 | 0.00 | 0.00 | 42 | 1011.1 |
| 20260507220011 | 8 | 309 | 8.0 | 17.7 | 0.00 | 0.00 | 0.00 | 41 | 1011.2 |
| 20260507214526 | 8 | 354 | 3.2 | 12.9 | 0.00 | 0.00 | 0.00 | 45 | 1011.1 |
| 20260507213026 | 8 | 302 | 8.0 | 14.5 | 0.00 | 0.00 | 0.00 | 42 | 1011.1 |
| 20260507211505 | 8 | 288 | 4.8 | 17.7 | 0.00 | 0.00 | 0.00 | 43 | 1011.0 |
| 20260507210008 | 8 | 291 | 6.4 | 14.5 | 0.00 | 0.00 | 0.00 | 45 | 1011.1 |
| 20260507204515 | 8 | 266 | 3.2 | 17.7 | 0.00 | 0.00 | 0.00 | 48 | 1011.1 |
| 20260507203035 | 8 | 302 | 4.8 | 9.7 | 0.00 | 0.00 | 0.00 | 46 | 1011.2 |
| 20260507201527 | 7 | 259 | 4.8 | 11.3 | 0.00 | 0.00 | 0.00 | 48 | 1011.3 |
| 20260507200010 | 8 | 300 | 6.4 | 16.1 | 0.00 | 0.00 | 0.00 | 47 | 1011.4 |
| 20260507194511 | 7 | 96 | 0.0 | 6.4 | 0.00 | 0.00 | 0.00 | 50 | 1011.5 |
| 20260507193039 | 7 | 311 | 4.8 | 11.3 | 0.00 | 0.00 | 0.00 | 50 | 1011.6 |
| 20260507191526 | 7 | 302 | 4.8 | 12.9 | 0.00 | 0.00 | 0.00 | 54 | 1011.7 |
| 20260507190035 | 7 | 262 | 8.0 | 12.9 | 0.00 | 0.00 | 0.00 | 51 | 1011.8 |
| 20260507184510 | 7 | 326 | 9.7 | 17.7 | 0.00 | 0.00 | 0.00 | 51 | 1011.8 |
| 20260507183032 | 7 | 275 | 6.4 | 16.1 | 0.00 | 0.00 | 0.00 | 49 | 1011.9 |
| 20260507181532 | 7 | 273 | 8.0 | 16.1 | 0.00 | 0.00 | 0.00 | 50 | 1011.9 |
| 20260507180024 | 7 | 268 | 8.0 | 12.9 | 0.00 | 0.00 | 0.00 | 48 | 1011.9 |
| 20260507174528 | 7 | 259 | 1.6 | 14.5 | 0.00 | 0.00 | 0.00 | 50 | 1012.0 |
| 20260507173014 | 7 | 288 | 9.7 | 14.5 | 0.00 | 0.00 | 0.00 | 49 | 1012.2 |
| 20260507171523 | 7 | 319 | 9.7 | 17.7 | 0.00 | 0.00 | 0.00 | 49 | 1012.4 |
| 20260507170023 | 7 | 286 | 3.2 | 14.5 | 0.00 | 0.00 | 0.00 | 52 | 1012.7 |
| 20260507164524 | 6 | 303 | 4.8 | 14.5 | 0.00 | 0.00 | 0.00 | 54 | 1012.8 |
| 20260507163030 | 6 | 296 | 4.8 | 17.7 | 0.00 | 0.00 | 0.00 | 55 | 1012.7 |
| 20260507161511 | 6 | 275 | 4.8 | 17.7 | 0.00 | 0.00 | 0.00 | 55 | 1013.0 |
| 20260507160024 | 6 | 230 | 8.0 | 12.9 | 0.00 | 0.00 | 0.00 | 56 | 1013.1 |
| 20260507154529 | 6 | 221 | 6.4 | 14.5 | 0.00 | 0.00 | 0.00 | 55 | 1012.9 |
| 20260507153028 | 6 | 285 | 8.0 | 17.7 | 0.00 | 0.00 | 0.00 | 56 | 1013.1 |
| 20260507151528 | 6 | 292 | 8.0 | 17.7 | 0.00 | 0.00 | 0.00 | 56 | 1013.1 |
| 20260507150026 | 6 | 257 | 3.2 | 11.3 | 0.00 | 0.00 | 0.00 | 58 | 1013.3 |
| 20260507144531 | 6 | 263 | 6.4 | 14.5 | 0.00 | 0.00 | 0.00 | 60 | 1013.2 |
| 20260507143026 | 6 | 269 | 4.8 | 12.9 | 0.00 | 0.00 | 0.00 | 60 | 1013.3 |
| 20260507141528 | 6 | 268 | 6.4 | 14.5 | 0.00 | 0.00 | 0.00 | 58 | 1013.2 |
| 20260507140010 | 6 | 287 | 9.7 | 16.1 | 0.00 | 0.00 | 0.00 | 62 | 1013.3 |
| 20260507134522 | 6 | 245 | 6.4 | 12.9 | 0.00 | 0.00 | 0.00 | 62 | 1013.3 |
| 20260507133028 | 6 | 312 | 4.8 | 11.3 | 0.00 | 0.00 | 0.00 | 65 | 1013.3 |
| 20260507131529 | 5 | 250 | 8.0 | 12.9 | 0.00 | 0.00 | 0.00 | 68 | 1013.2 |
| 20260507130051 | 5 | 288 | 6.4 | 11.3 | 0.00 | 0.00 | 0.00 | 72 | 1013.2 |
| 20260507124512 | 4 | 294 | 3.2 | 8.0 | 0.00 | 0.00 | 0.00 | 77 | 1013.2 |
| 20260507123014 | 2 | 247 | 1.6 | 8.0 | 0.00 | 0.00 | 0.00 | 86 | 1013.1 |
| 20260507121526 | 1 | 139 | 0.0 | 0.0 | 0.00 | 0.00 | 0.00 | 93 | 1013.1 |
| 20260507120034 | 0 | 139 | 0.0 | 0.0 | 0.00 | 0.00 | 0.00 | 94 | 1013.1 |
| 20260507114523 | 0 | 139 | 0.0 | 0.0 | 0.00 | 0.00 | 0.00 | 94 | 1012.9 |
| 20260507113023 | -1 | 139 | 0.0 | 0.0 | 0.00 | 0.00 | 0.00 | 93 | 1012.8 |
| 20260507111526 | -1 | 139 | 0.0 | 0.0 | 0.00 | 0.00 | 0.00 | 93 | 1012.7 |
| 20260507110027 | -1 | 139 | 0.0 | 0.0 | 0.00 | 0.00 | 0.00 | 93 | 1012.4 |
| 20260507104528 | -1 | 139 | 0.0 | 0.0 | 0.00 | 0.00 | 0.00 | 92 | 1012.3 |
| 20260507103028 | -1 | 139 | 0.0 | 0.0 | 0.00 | 0.00 | 0.00 | 92 | 1012.2 |
| 20260507101538 | 0 | 139 | 0.0 | 0.0 | 0.00 | 0.00 | 0.00 | 91 | 1012.3 |
| 20260507100030 | 0 | 139 | 0.0 | 0.0 | 0.00 | 0.00 | 0.00 | 90 | 1012.3 |
| 20260507094524 | 0 | 141 | 0.0 | 0.0 | 0.00 | 0.00 | 0.00 | 90 | 1012.4 |
| 20260507093026 | 0 | 141 | 0.0 | 0.0 | 0.00 | 0.00 | 0.00 | 89 | 1012.4 |
| 20260507091529 | 0 | 141 | 0.0 | 0.0 | 0.00 | 0.00 | 0.00 | 87 | 1012.5 |
| 20260507090018 | 1 | 141 | 0.0 | 0.0 | 0.00 | 0.00 | 0.00 | 87 | 1012.6 |
| 20260507084525 | 1 | 141 | 0.0 | 0.0 | 0.00 | 0.00 | 0.00 | 86 | 1012.7 |
| 20260507083024 | 1 | 141 | 0.0 | 0.0 | 0.00 | 0.00 | 0.00 | 86 | 1012.8 |
| 20260507081527 | 2 | 141 | 0.0 | 0.0 | 0.00 | 0.00 | 0.00 | 86 | 1012.8 |
| 20260507080026 | 2 | 141 | 0.0 | 0.0 | 0.00 | 0.00 | 0.00 | 84 | 1012.9 |
| 20260507074524 | 2 | 141 | 0.0 | 0.0 | 0.00 | 0.00 | 0.00 | 82 | 1012.8 |
| 20260507073018 | 2 | 141 | 0.0 | 0.0 | 0.00 | 0.00 | 0.00 | 81 | 1012.8 |
| 20260507071525 | 2 | 141 | 0.0 | 0.0 | 0.00 | 0.00 | 0.00 | 81 | 1012.9 |
| 20260507070037 | 2 | 141 | 0.0 | 0.0 | 0.00 | 0.00 | 0.00 | 80 | 1013.0 |
| 20260507064534 | 2 | 141 | 0.0 | 0.0 | 0.00 | 0.00 | 0.00 | 79 | 1013.2 |
| 20260507063030 | 3 | 141 | 0.0 | 0.0 | 0.00 | 0.00 | 0.00 | 79 | 1013.4 |
| 20260507061527 | 3 | 141 | 0.0 | 0.0 | 0.00 | 0.00 | 0.00 | 78 | 1013.4 |
| 20260507060024 | 3 | 141 | 0.0 | 0.0 | 0.00 | 0.00 | 0.00 | 79 | 1013.5 |
| 20260507054509 | 3 | 141 | 0.0 | 0.0 | 0.00 | 0.00 | 0.00 | 77 | 1013.6 |
| 20260507053022 | 3 | 141 | 0.0 | 0.0 | 0.00 | 0.00 | 0.00 | 76 | 1013.6 |
| 20260507051520 | 3 | 141 | 0.0 | 0.0 | 0.00 | 0.00 | 0.00 | 77 | 1013.7 |
| 20260507050034 | 3 | 141 | 0.0 | 0.0 | 0.00 | 0.00 | 0.00 | 77 | 1013.7 |
| 20260507044506 | 3 | 141 | 0.0 | 0.0 | 0.00 | 0.00 | 0.00 | 75 | 1013.6 |
| 20260507043009 | 3 | 141 | 0.0 | 0.0 | 0.00 | 0.00 | 0.00 | 75 | 1013.7 |
| 20260507041531 | 3 | 141 | 0.0 | 0.0 | 0.00 | 0.00 | 0.00 | 75 | 1013.8 |
| 20260507040028 | 3 | 141 | 0.0 | 0.0 | 0.00 | 0.00 | 0.00 | 78 | 1013.8 |
| 20260507034524 | 3 | 141 | 0.0 | 0.0 | 0.00 | 0.00 | 0.00 | 79 | 1013.9 |
| 20260507033008 | 3 | 141 | 0.0 | 0.0 | 0.00 | 0.00 | 0.00 | 79 | 1014.0 |
| 20260507031529 | 3 | 141 | 0.0 | 0.0 | 0.00 | 0.00 | 0.00 | 79 | 1014.0 |
| 20260507030025 | 3 | 141 | 0.0 | 0.0 | 0.00 | 0.00 | 0.00 | 78 | 1014.1 |
| 20260507024528 | 3 | 141 | 0.0 | 0.0 | 0.00 | 0.00 | 0.00 | 78 | 1014.0 |
| 20260507023026 | 3 | 98 | 0.0 | 0.0 | 0.00 | 0.00 | 0.00 | 78 | 1014.1 |
| 20260507021506 | 3 | 6 | 0.0 | 0.0 | 0.00 | 0.00 | 0.00 | 74 | 1014.0 |
| 20260507020012 | 3 | 6 | 0.0 | 0.0 | 0.00 | 0.00 | 0.00 | 74 | 1014.0 |
| 20260507014539 | 4 | 79 | 0.0 | 0.0 | 0.00 | 0.00 | 0.00 | 70 | 1013.9 |
| 20260507013027 | 4 | 53 | 0.0 | 3.2 | 0.00 | 0.00 | 0.00 | 69 | 1013.7 |
| 20260507011528 | 5 | 43 | 1.6 | 4.8 | 0.00 | 0.00 | 0.00 | 68 | 1013.7 |